This demonstration page uses our WeatherBlox Daily Observations layout. Learn more.

Left ArrowRight Arrow

44.8408, -93.29828

Hourly Observations for March 29, 2015

Temp ( °F °C ) Dew Point ( °F °C ) Humidity (%) Winds ( mph kmh ) Pressure ( in mb ) Visibility ( mi km ) Precip ( " mm )
12:53 am 00:53 Clear 36 2.2 20 -6.7 52 52 SSE 17 28 29.92 1013 10 16 0.00 0.00
1:53 am 01:53 Clear 35 1.7 21 -6.1 57 57 SSE 14 22 29.89 1012 10 16 0.00 0.00
2:53 am 02:53 Mostly Clear 37 2.8 22 -5.6 54 54 SSE 22 35 29.85 1011 10 16 0.00 0.00
3:36 am 03:36 Mostly Cloudy 37 3 23 -5 56 56 S 23 37 29.83 1010 10 16 0.00 0.00
3:41 am 03:41 Mostly Cloudy with Light Rain 37 2.8 24 -4.4 59 59 S 17 28 29.88 1012 10 16 0.00 0.03
3:53 am 03:53 Cloudy with Light Rain 36 2.2 26 -3.3 67 67 S 21 33 29.82 1010 8 13 0.00 0.03
4:53 am 04:53 Cloudy with Light Rain 35 1.7 29 -1.7 78 78 S 21 33 29.76 1008 9 14 0.11 2.79
5:53 am 05:53 Partly Cloudy 35 1.7 29 -1.7 78 78 SSE 16 26 29.72 1007 10 16 0.00 0.03
6:53 am 06:53 Partly Cloudy 35 1.7 30 -1.1 82 82 SSE 14 22 29.69 1005 9 14 0.00 0.03
7:53 am 07:53 Cloudy 38 3.3 31 -0.6 76 76 S 13 20 29.65 1004 8 13 0.00 0.00
8:53 am 08:53 Cloudy 38 3.3 32 0 79 79 SSW 17 28 29.62 1003 8 13 0.00 0.00
9:53 am 09:53 Mostly Cloudy 42 5.6 35 1.7 76 76 SW 14 22 29.60 1002 9 14 0.00 0.00
10:01 am 10:01 Mostly Cloudy 42 5.6 35 1.7 76 76 SW 15 24 29.62 1003 9 14 0.00 0.00
10:53 am 10:53 Cloudy 46 7.8 38 3.3 73 73 WSW 17 28 29.57 1001 10 16 0.00 0.00
11:53 am 11:53 Cloudy with Light Rain 43 6.1 38 3.3 82 82 WNW 32 52 29.62 1003 7 11 0.02 0.51
12:18 pm 12:18 Cloudy with Light Rain 39 3.9 36 2.2 89 89 WNW 33 54 29.68 1005 4 6 0.01 0.25
12:53 pm 12:53 Cloudy with Light Rain 40 4.4 37 2.8 89 89 WNW 17 28 29.70 1006 10 16 0.06 1.52
1:23 pm 13:23 Cloudy 44 6.7 39 3.9 83 83 WNW 17 28 29.71 1006 10 16 0.00 0.03
1:53 pm 13:53 Mostly Cloudy 47 8.3 39 3.9 74 74 WNW 29 46 29.72 1007 10 16 0.00 0.03
2:11 pm 14:11 Mostly Cloudy 48 8.9 38 3.3 68 68 WNW 20 31 29.74 1007 10 16 0.00 0.00
2:53 pm 14:53 Mostly Sunny 51 10.6 35 1.7 54 54 WNW 24 39 29.75 1007 10 16 0.00 0.00
3:53 pm 15:53 Mostly Sunny 52 11.1 29 -1.7 41 41 WNW 36 57 29.78 1008 10 16 0.00 0.00
4:53 pm 16:53 Mostly Sunny 52 11.1 26 -3.3 37 37 NW 33 54 29.80 1009 10 16 0.00 0.00
5:53 pm 17:53 Mostly Sunny 52 11.1 28 -2.2 40 40 WNW 25 41 29.83 1010 10 16 0.00 0.00
6:53 pm 18:53 Mostly Sunny 50 10 26 -3.3 39 39 NW 22 35 29.88 1012 10 16 0.00 0.00
7:53 pm 19:53 Mostly Clear 48 8.9 26 -3.3 42 42 WNW 14 22 29.92 1013 10 16 0.00 0.00
8:53 pm 20:53 Clear 46 7.8 27 -2.8 47 47 WNW 12 19 29.94 1014 10 16 0.00 0.00
9:53 pm 21:53 Clear 45 7.2 27 -2.8 49 49 W 10 17 29.96 1015 10 16 0.00 0.00
10:53 pm 22:53 Clear 44 6.7 26 -3.3 49 49 W 8 13 29.97 1015 10 16 0.00 0.00
11:53 pm 23:53 Mostly Cloudy 43 6.1 27 -2.8 53 53 WSW 6 9 29.98 1015 10 16 0.00 0.00

Powered by AerisWeather